Change the Weather History Date:

Thursday, March 21, 2013

  Actual Average (KLXV) Record (KLXV)
Temperature  
Mean Temperature 20 °F -  
Max Temperature 26 °F 38 °F 52 °F (2004)
Min Temperature 14 °F 12 °F -7 °F (1983)
Degree Days  
Heating Degree Days 45 40  
Month to date heating degree days 884  
Since 1 July heating degree days 8594  
Cooling Degree Days 0 0  
Month to date cooling degree days 0  
Year to date cooling degree days 0  
Moisture  
Dew Point 15 °F    
Average Humidity 77    
Maximum Humidity 86    
Minimum Humidity 62    
Precipitation  
Precipitation 0.00 in 0.03 in 0.31 in (2013)
Month to date precipitation 0.61  
Year to date precipitation 1.93  
Sea Level Pressure  
Sea Level Pressure 29.80 in    
Wind  
Wind Speed 15 mph (WSW)    
Max Wind Speed 37 mph    
Max Gust Speed 46 mph    
Visibility 2 miles    
Events Snow    
T = Trace of Precipitation, MM = Missing Value Source: NWS Daily Summary

Daily Weather History Graph

Daily Weather History Graph

Search for Another Location

Airport or City:

Trip Planner

Search our weather history database for the weather conditions in past years. The results will help you decide how hot, cold, wet, or windy it might be!

Date:

Astronomy

Mar. 21, 2013 Rise Set
Actual Time 7:05 AM MDT 7:17 PM MDT
Civil Twilight 6:39 AM MDT 7:44 PM MDT
Nautical Twilight 6:07 AM MDT 8:16 PM MDT
Astronomical Twilight 5:35 AM MDT 8:48 PM MDT
Moon 1:51 PM MDT (3/21) 3:28 AM MDT (3/21)
Length of Visible Light 13h 05m
Length of Day
12h 11m
Waxing Gibbous, 69% of the Moon is Illuminated
Mar 21
Waxing Gibbous
Mar 27
Full
Apr 2
Last Quarter
Apr 10
New
Apr 18
First Quarter

Hourly Weather History & Observations

Time (MDT) Temp. Windchill Dew Point Humidity Pressure Visibility Wind Dir Wind Speed Gust Speed Precip Events Conditions
12:12 AM 24.8 °F 14.6 °F 19.4 °F 80% 29.96 in 2.0 mi WSW 10.4 mph 16.1 mph N/A Snow Light Snow
12:32 AM 24.8 °F - 19.4 °F 80% 29.95 in 3.0 mi North - - N/A Snow Light Snow
12:52 AM 24.8 °F 15.3 °F 19.4 °F 80% 29.95 in 1.0 mi WSW 9.2 mph - N/A Snow Light Snow
1:12 AM 24.8 °F 15.3 °F 19.4 °F 80% 29.94 in 0.8 mi WSW 9.2 mph 17.3 mph N/A Snow Light Snow
1:32 AM 24.8 °F 16.1 °F 19.4 °F 80% 29.94 in 0.5 mi SW 8.1 mph - N/A Snow Snow
1:52 AM 24.8 °F 16.9 °F 19.4 °F 80% 29.93 in 2.5 mi SW 6.9 mph - N/A Snow Light Snow
2:12 AM 24.8 °F 15.3 °F 19.4 °F 80% 29.92 in 1.5 mi WSW 9.2 mph - N/A Snow Light Snow
2:32 AM 24.8 °F 16.9 °F 19.4 °F 80% 29.91 in 10.0 mi SSW 6.9 mph - N/A   Mostly Cloudy
2:52 AM 24.8 °F 14.0 °F 19.4 °F 80% 29.89 in 3.0 mi SSW 11.5 mph - N/A Snow Light Snow
3:12 AM 24.8 °F 16.1 °F 17.6 °F 74% 29.88 in 10.0 mi WSW 8.1 mph 19.6 mph N/A   Scattered Clouds
3:32 AM 24.8 °F 14.0 °F 19.4 °F 80% 29.86 in 7.0 mi SSW 11.5 mph 20.7 mph N/A Snow Light Snow
3:52 AM 24.8 °F 13.4 °F 17.6 °F 74% 29.85 in 4.0 mi SSW 12.7 mph 21.9 mph N/A   Haze
4:12 AM 24.8 °F 12.4 °F 17.6 °F 74% 29.84 in 5.0 mi SSW 15.0 mph 23.0 mph N/A   Haze
4:32 AM 24.8 °F 12.9 °F 17.6 °F 74% 29.82 in 3.0 mi SW 13.8 mph 23.0 mph N/A   Haze
4:52 AM 24.8 °F 15.3 °F 17.6 °F 74% 29.81 in 5.0 mi SW 9.2 mph 25.3 mph N/A Snow Light Snow
5:12 AM 24.8 °F 11.1 °F 17.6 °F 74% 29.80 in 4.0 mi South 18.4 mph 23.0 mph N/A Snow Light Snow
5:32 AM 26.6 °F 16.8 °F 17.6 °F 69% 29.80 in 10.0 mi SSW 10.4 mph 19.6 mph N/A   Mostly Cloudy
5:52 AM 24.8 °F 14.0 °F 17.6 °F 74% 29.80 in 5.0 mi SSW 11.5 mph - N/A Snow Light Snow
6:12 AM 24.8 °F 14.6 °F 19.4 °F 80% 29.80 in 0.8 mi South 10.4 mph - N/A Snow Light Snow
6:21 AM 24.8 °F 14.0 °F 19.4 °F 80% 29.79 in 0.8 mi South 11.5 mph - N/A Snow Light Snow
6:52 AM 24.8 °F - 19.4 °F 80% 29.78 in 5.0 mi North - - N/A Snow Light Snow
7:12 AM 24.8 °F 19.1 °F 19.4 °F 80% 29.78 in 0.5 mi West 4.6 mph - N/A Snow Snow
7:32 AM 24.8 °F 11.9 °F 19.4 °F 80% 29.79 in 0.2 mi West 16.1 mph - N/A Snow Snow
7:52 AM 24.8 °F - 19.4 °F 80% 29.78 in 0.2 mi North - - N/A Snow Snow
8:12 AM 24.8 °F 12.9 °F 19.4 °F 80% 29.78 in 0.2 mi West 13.8 mph - N/A Snow Snow
8:32 AM 24.8 °F 11.5 °F 19.4 °F 80% 29.78 in 0.5 mi West 17.3 mph 21.9 mph N/A Snow Snow
8:52 AM 24.8 °F 13.4 °F 19.4 °F 80% 29.78 in 0.8 mi West 12.7 mph - N/A Snow Light Snow
9:12 AM 24.8 °F - 19.4 °F 80% 29.76 in 0.5 mi North - - N/A Snow Snow
9:32 AM 24.8 °F - 19.4 °F 80% 29.77 in 0.2 mi North - - N/A Snow Light Snow
9:52 AM 24.8 °F - 19.4 °F 80% 29.75 in 0.5 mi North - - N/A Snow Light Snow
10:32 AM 24.8 °F 10.0 °F 19.4 °F 80% 29.74 in - West 21.9 mph 28.8 mph N/A   Overcast
10:52 AM 24.8 °F 11.5 °F 19.4 °F 80% 29.74 in 5.0 mi West 17.3 mph 21.9 mph N/A Snow Light Snow
11:12 AM 26.6 °F 15.7 °F 19.4 °F 74% 29.74 in 1.0 mi West 12.7 mph 20.7 mph N/A Snow Light Snow
11:32 AM 26.6 °F 14.3 °F 21.2 °F 80% 29.73 in 0.8 mi West 16.1 mph - N/A Snow Light Snow
11:52 AM 24.8 °F 10.7 °F 17.6 °F 74% 29.71 in 1.5 mi WSW 19.6 mph 25.3 mph N/A Snow Light Snow
12:12 PM 23.0 °F - 17.6 °F 80% 29.71 in 0.2 mi North - - N/A Snow Heavy Snow
12:32 PM 24.8 °F 10.0 °F 19.4 °F 80% 29.72 in 0.2 mi West 21.9 mph 28.8 mph N/A Snow Snow
12:52 PM 24.8 °F 11.9 °F 19.4 °F 80% 29.72 in 0.2 mi West 16.1 mph 26.5 mph N/A Snow Heavy Snow
1:12 PM 23.0 °F - 19.4 °F 86% 29.71 in 0.2 mi North - - N/A Snow Heavy Snow
1:32 PM 23.0 °F 4.4 °F 17.6 °F 80% 29.70 in 0.2 mi West 34.5 mph - N/A Snow Heavy Snow
1:52 PM 23.0 °F - 17.6 °F 80% 29.72 in 0.2 mi North - - N/A Snow Heavy Snow
2:12 PM 19.4 °F - 14.0 °F 80% 29.74 in 0.2 mi North - - N/A Snow Snow
2:32 PM 21.2 °F 1.9 °F 14.0 °F 74% 29.72 in 0.2 mi West 34.5 mph - N/A Snow Snow
2:52 PM 21.2 °F 1.4 °F 15.8 °F 80% 29.72 in 0.2 mi West 36.8 mph 46.0 mph N/A Snow Snow
3:12 PM 19.4 °F -0.8 °F 14.0 °F 80% 29.70 in 0.2 mi West 35.7 mph - N/A Snow Snow
3:32 PM 19.4 °F -0.0 °F 12.2 °F 74% 29.71 in 0.5 mi West 32.2 mph 41.4 mph N/A Snow Light Snow
3:52 PM 23.0 °F 8.3 °F 12.2 °F 63% 29.72 in 4.0 mi West 19.6 mph 31.1 mph N/A Snow Light Snow
4:12 PM 21.2 °F - 14.0 °F 74% 29.73 in 3.0 mi North - - N/A Snow Light Snow
4:32 PM 19.4 °F 0.8 °F 14.0 °F 80% 29.73 in 0.2 mi West 28.8 mph - N/A Snow Snow
4:52 PM 19.4 °F 0.5 °F 14.0 °F 80% 29.73 in 0.2 mi West 29.9 mph - N/A Snow Heavy Snow
5:12 PM 19.4 °F 1.4 °F 14.0 °F 80% 29.74 in - West 26.5 mph 38.0 mph N/A   Overcast
5:32 PM 19.4 °F - 14.0 °F 80% 29.76 in - North - - N/A   Overcast
5:52 PM 19.4 °F 1.4 °F 12.2 °F 74% 29.77 in - West 26.5 mph 39.1 mph N/A   Overcast
6:12 PM 17.6 °F -1.0 °F 12.2 °F 79% 29.78 in - West 26.5 mph 33.4 mph N/A   Overcast
6:32 PM 17.6 °F 0.9 °F 12.2 °F 79% 29.79 in - West 20.7 mph 28.8 mph N/A   Overcast
6:52 PM 17.6 °F 0.5 °F 12.2 °F 79% 29.80 in - West 21.9 mph 26.5 mph N/A   Overcast
7:12 PM 17.6 °F 0.1 °F 12.2 °F 79% 29.81 in - West 23.0 mph 27.6 mph N/A   Overcast
7:32 PM 17.6 °F -0.3 °F 10.4 °F 73% 29.81 in - West 24.2 mph 33.4 mph N/A   Mostly Cloudy
7:52 PM 14.0 °F -4.3 °F 8.6 °F 79% 29.81 in - West 21.9 mph 31.1 mph N/A   Clear
8:12 PM 15.8 °F -1.1 °F 5.0 °F 62% 29.81 in - West 19.6 mph 28.8 mph N/A   Scattered Clouds
8:32 PM 15.8 °F -1.1 °F 6.8 °F 68% 29.81 in - West 19.6 mph 26.5 mph N/A   Mostly Cloudy
8:52 PM 15.8 °F -1.5 °F 6.8 °F 68% 29.81 in - West 20.7 mph 24.2 mph N/A   Mostly Cloudy
9:12 PM 15.8 °F 0.3 °F 8.6 °F 73% 29.82 in - West 16.1 mph 26.5 mph N/A   Overcast
9:32 PM 14.0 °F - 8.6 °F 79% 29.83 in - North - - N/A   Overcast
9:52 PM 14.0 °F -0.8 °F 8.6 °F 79% 29.83 in - WSW 13.8 mph - N/A   Overcast
10:12 PM 15.8 °F -1.9 °F 8.6 °F 73% 29.82 in - West 21.9 mph - N/A   Overcast
10:32 PM 14.0 °F -0.8 °F 8.6 °F 79% 29.83 in - WSW 13.8 mph - N/A   Overcast
10:52 PM 14.0 °F -0.8 °F 8.6 °F 79% 29.84 in - WSW 13.8 mph 21.9 mph N/A   Overcast
11:12 PM 14.0 °F 2.0 °F 8.6 °F 79% 29.84 in - SW 9.2 mph 19.6 mph N/A   Overcast
11:32 PM 14.0 °F 3.9 °F 5.0 °F 67% 29.84 in 7.0 mi SSW 6.9 mph 17.3 mph N/A Snow Light Snow
11:52 PM 14.0 °F - 6.8 °F 73% 29.84 in 4.0 mi North - - N/A Snow Light Snow